Weather History for Mammoth, CA

Change the Weather History Date:

Tuesday, March 25, 2014

  Actual Average Record
Temperature  
Mean Temperature 39 °F -  
Max Temperature 57 °F 49 °F 62 °F (2003)
Min Temperature 21 °F 36 °F 17 °F (2011)
Degree Days  
Heating Degree Days 26    
Moisture  
Dew Point 16 °F    
Average Humidity 43    
Maximum Humidity 86    
Minimum Humidity 14    
Precipitation  
Precipitation 0.00 in - - ()
Sea Level Pressure  
Sea Level Pressure 29.99 in    
Wind  
Wind Speed 8 mph (SSW)    
Max Wind Speed 29 mph    
Max Gust Speed 48 mph    
Visibility 10 miles    
Events      
Averages and records for this station are not official NWS values.
T = Trace of Precipitation, MM = Missing Value Source: NWS Daily Summary

Daily Weather History Graph

Daily Weather History Graph

Search for Another Location

Airport:

Trip Planner

Search our weather history database for the weather conditions in past years. The results will help you decide how hot, cold, wet, or windy it might be!

Date:

Astronomy

Mar. 25, 2014 Rise Set
Actual Time 6:51 AM PDT 7:11 PM PDT
Civil Twilight 6:24 AM PDT 7:38 PM PDT
Nautical Twilight 5:54 AM PDT 8:08 PM PDT
Astronomical Twilight 5:23 AM PDT 8:40 PM PDT
Moon 3:11 AM PDT (3/25) 1:53 PM PDT (3/25)
Length of Visible Light 13h 13m
Length of Day
12h 20m
Waning Crescent, 31% of the Moon is Illuminated
Mar 25
Waning Crescent
Mar 30
New
Apr 7
First Quarter
Apr 15
Full
Apr 22
Last Quarter

Hourly Weather History & Observations

Time (PDT) Temp. Windchill Dew Point Humidity Pressure Visibility Wind Dir Wind Speed Gust Speed Precip Events Conditions
12:15 AM 28.4 °F - 17.6 °F 64% 30.21 in 10.0 mi Calm Calm - N/A   Clear
12:35 AM 28.4 °F - 17.6 °F 64% 30.21 in 10.0 mi Calm Calm - N/A   Clear
12:55 AM 28.4 °F 24.6 °F 15.8 °F 59% 30.20 in 10.0 mi NNW 3.5 mph - N/A   Clear
1:15 AM 28.4 °F 24.6 °F 17.6 °F 64% 30.20 in 10.0 mi NNW 3.5 mph - N/A   Clear
1:35 AM 28.4 °F 24.6 °F 17.6 °F 64% 30.19 in 10.0 mi NE 3.5 mph - N/A   Clear
1:55 AM 24.8 °F 20.5 °F 15.8 °F 69% 30.18 in 10.0 mi NE 3.5 mph - N/A   Clear
2:15 AM 26.6 °F - 17.6 °F 69% 30.18 in 10.0 mi Calm Calm - N/A   Clear
2:35 AM 24.8 °F - 17.6 °F 74% 30.17 in 10.0 mi Calm Calm - N/A   Clear
2:55 AM 23.0 °F - 15.8 °F 74% 30.16 in 10.0 mi Calm Calm - N/A   Clear
3:15 AM 24.8 °F 20.5 °F 15.8 °F 69% 30.15 in 10.0 mi NNE 3.5 mph - N/A   Clear
3:35 AM 26.6 °F - 17.6 °F 69% 30.14 in 10.0 mi Calm Calm - N/A   Clear
3:55 AM 26.6 °F - 17.6 °F 69% 30.13 in 10.0 mi Calm Calm - N/A   Clear
4:15 AM 28.4 °F - 17.6 °F 64% 30.13 in 10.0 mi Calm Calm - N/A   Clear
4:35 AM 26.6 °F - 17.6 °F 69% 30.13 in 10.0 mi Calm Calm - N/A   Clear
4:55 AM 24.8 °F - 17.6 °F 74% 30.12 in 10.0 mi Calm Calm - N/A   Clear
5:15 AM 23.0 °F - 15.8 °F 74% 30.12 in 10.0 mi Calm Calm - N/A   Clear
5:35 AM 21.2 °F 16.4 °F 14.0 °F 74% 30.11 in 10.0 mi North 3.5 mph - N/A   Clear
5:55 AM 23.0 °F 18.4 °F 17.6 °F 80% 30.10 in 10.0 mi NNW 3.5 mph - N/A   Clear
6:15 AM 21.2 °F 14.9 °F 17.6 °F 86% 30.11 in 10.0 mi WNW 4.6 mph - N/A   Clear
6:35 AM 24.8 °F - 17.6 °F 74% 30.10 in 10.0 mi Calm Calm - N/A   Clear
6:55 AM 24.8 °F 19.1 °F 19.4 °F 80% 30.10 in 10.0 mi WNW 4.6 mph - N/A   Clear
7:15 AM 23.0 °F 18.4 °F 17.6 °F 80% 30.09 in 10.0 mi NNE 3.5 mph - N/A   Clear
7:35 AM 26.6 °F 22.6 °F 17.6 °F 69% 30.09 in 10.0 mi NW 3.5 mph - N/A   Clear
7:55 AM 32.0 °F - 19.4 °F 60% 30.09 in 10.0 mi Calm Calm - N/A   Clear
8:15 AM 35.6 °F 32.8 °F 21.2 °F 56% 30.09 in 10.0 mi East 3.5 mph - N/A   Clear
8:35 AM 42.8 °F - 17.6 °F 36% 30.08 in 10.0 mi Calm Calm - N/A   Clear
8:55 AM 48.2 °F - 12.2 °F 24% 30.07 in 10.0 mi SSE 10.4 mph - N/A   Clear
9:15 AM 50.0 °F - 5.0 °F 16% 30.07 in 10.0 mi South 15.0 mph 19.6 mph N/A   Clear
9:35 AM 50.0 °F - 5.0 °F 16% 30.07 in 10.0 mi SSW 16.1 mph 24.2 mph N/A   Clear
9:55 AM 51.8 °F - 5.0 °F 15% 30.06 in 10.0 mi SSW 18.4 mph 28.8 mph N/A   Clear
10:15 AM 51.8 °F - 5.0 °F 15% 30.06 in 10.0 mi South 16.1 mph 29.9 mph N/A   Clear
10:35 AM 51.8 °F - 6.8 °F 16% 30.06 in 10.0 mi South 12.7 mph 29.9 mph N/A   Clear
11:15 AM 51.8 °F - 6.8 °F 16% 30.03 in 10.0 mi SSW 20.7 mph 42.6 mph N/A   Clear
11:35 AM 51.8 °F - 6.8 °F 16% 30.02 in 10.0 mi SSW 17.3 mph 24.2 mph N/A   Clear
11:55 AM 53.6 °F - 8.6 °F 16% 30.00 in 10.0 mi SSW 18.4 mph 28.8 mph N/A   Clear
12:15 PM 57.2 °F - 8.6 °F 14% 30.01 in 10.0 mi SSW 6.9 mph 26.5 mph N/A   Clear
12:35 PM 55.4 °F - 10.4 °F 17% 29.99 in 10.0 mi South 16.1 mph 36.8 mph N/A   Scattered Clouds
12:55 PM 55.4 °F - 8.6 °F 15% 29.98 in 10.0 mi SSW 26.5 mph 40.3 mph N/A   Scattered Clouds
1:15 PM 57.2 °F - 8.6 °F 14% 29.97 in 10.0 mi South 20.7 mph 32.2 mph N/A   Scattered Clouds
1:35 PM 55.4 °F - 10.4 °F 17% 29.96 in 10.0 mi South 24.2 mph 40.3 mph N/A   Scattered Clouds
1:55 PM 55.4 °F - 10.4 °F 17% 29.95 in 10.0 mi South 18.4 mph 33.4 mph N/A   Scattered Clouds
2:15 PM 55.4 °F - 14.0 °F 20% 29.93 in 10.0 mi SW 20.7 mph 31.1 mph N/A   Scattered Clouds
2:35 PM 53.6 °F - 15.8 °F 22% 29.92 in 10.0 mi SSW 11.5 mph 26.5 mph N/A   Clear
2:55 PM 55.4 °F - 15.8 °F 21% 29.91 in 10.0 mi SSW 19.6 mph 27.6 mph N/A   Clear
3:15 PM 55.4 °F - 17.6 °F 23% 29.91 in 10.0 mi WSW 20.7 mph 35.7 mph N/A   Clear
3:35 PM 53.6 °F - 17.6 °F 24% 29.90 in 10.0 mi SSW 17.3 mph 32.2 mph N/A   Clear
3:55 PM 53.6 °F - 17.6 °F 24% 29.89 in 10.0 mi SSW 19.6 mph 33.4 mph N/A   Clear
4:15 PM 53.6 °F - 14.0 °F 21% 29.87 in 10.0 mi SW 25.3 mph 36.8 mph N/A   Clear
4:35 PM 51.8 °F - 15.8 °F 24% 29.86 in 10.0 mi WSW 28.8 mph 44.9 mph N/A   Clear
4:55 PM 50.0 °F - 17.6 °F 28% 29.86 in 10.0 mi WSW 26.5 mph 46.0 mph N/A   Clear
5:15 PM 48.2 °F - 19.4 °F 32% 29.86 in 10.0 mi WSW 24.2 mph 36.8 mph N/A   Scattered Clouds
5:35 PM 46.4 °F 38.1 °F 23.0 °F 40% 29.86 in 10.0 mi West 24.2 mph 46.0 mph N/A   Drizzle
5:55 PM 44.6 °F 35.1 °F 19.4 °F 37% 29.85 in 10.0 mi WSW 27.6 mph 36.8 mph N/A   Mostly Cloudy
6:15 PM 44.6 °F 35.9 °F 21.2 °F 39% 29.84 in 10.0 mi WSW 23.0 mph 34.5 mph N/A   Mostly Cloudy
6:35 PM 42.8 °F 33.3 °F 21.2 °F 42% 29.85 in 10.0 mi WSW 24.2 mph 38.0 mph N/A   Mostly Cloudy
6:55 PM 42.8 °F 34.5 °F 24.8 °F 49% 29.85 in 10.0 mi SW 18.4 mph 33.4 mph N/A   Mostly Cloudy
7:15 PM 41.0 °F 35.2 °F 23.0 °F 49% 29.86 in 10.0 mi SW 9.2 mph - N/A   Scattered Clouds
7:35 PM 41.0 °F 32.2 °F 23.0 °F 49% 29.85 in 10.0 mi SSW 18.4 mph 29.9 mph N/A   Scattered Clouds
7:55 PM 41.0 °F 31.9 °F 21.2 °F 45% 29.83 in 10.0 mi SW 19.6 mph 34.5 mph N/A   Mostly Cloudy
8:15 PM 41.0 °F 32.5 °F 19.4 °F 42% 29.83 in 10.0 mi SW 17.3 mph 34.5 mph N/A   Scattered Clouds
8:35 PM 41.0 °F 33.1 °F 17.6 °F 39% 29.83 in 10.0 mi SW 15.0 mph 25.3 mph N/A   Scattered Clouds
8:55 PM 41.0 °F 35.8 °F 19.4 °F 42% 29.83 in 10.0 mi South 8.1 mph 16.1 mph N/A   Clear
9:15 PM 41.0 °F 34.7 °F 17.6 °F 39% 29.81 in 10.0 mi South 10.4 mph 31.1 mph N/A   Clear
9:35 PM 41.0 °F 33.9 °F 17.6 °F 39% 29.80 in 10.0 mi South 12.7 mph 34.5 mph N/A   Clear
9:55 PM 41.0 °F 35.2 °F 14.0 °F 33% 29.78 in 10.0 mi East 9.2 mph 28.8 mph N/A   Clear
10:15 PM 41.0 °F 30.5 °F 14.0 °F 33% 29.78 in 10.0 mi South 26.5 mph 38.0 mph N/A   Clear
10:35 PM 41.0 °F 31.1 °F 15.8 °F 36% 29.78 in 10.0 mi SE 23.0 mph 44.9 mph N/A   Clear
10:55 PM 41.0 °F 32.5 °F 12.2 °F 31% 29.78 in 10.0 mi SSE 17.3 mph 31.1 mph N/A   Clear
11:15 PM 39.2 °F 30.5 °F 15.8 °F 39% 29.76 in 10.0 mi South 16.1 mph 48.3 mph N/A   Clear
11:35 PM 39.2 °F 28.3 °F 15.8 °F 39% 29.76 in 10.0 mi South 25.3 mph 39.1 mph N/A   Scattered Clouds
11:55 PM 39.2 °F 29.8 °F 15.8 °F 39% 29.77 in 10.0 mi South 18.4 mph 36.8 mph N/A   Scattered Clouds